Terminal Aerodrome Forecast
Issued by NWS Buffalo, NY

Home | Current Version | Previous Version | Text Only | Print | Product List | Glossary On
Versions: 1 2 3 4 5 6 7 8 9 10 11 12 13 14 15 16 17 18 19 20 21 22 23 24 25 26
000
FTUS41 KBUF 251502 AAA
TAFBUF
TAF AMD
KBUF 251502Z 2515/2612 25017G24KT P6SM FEW050
     FM251700 24020G30KT P6SM SCT050
     FM260100 25008KT P6SM VCSH BKN060
     FM260500 25005KT P6SM VCSH BKN040
     FM260900 26006KT P6SM VCSH BKN025=

USA.gov is the U.S. government's official web portal to all federal, state and local government web resources and services.